Showing default

ORBCOMM FM 109, 40086

Orbit data source: Space-Track

ORBCOMM FM 109, 40086 is a payload satellite owned by Orbcomm (US) in LEO that was launched on Mon, 14 Jul 2014 UTC via an FALCON 9 launch vehicle from the Air Force Eastern Test Range (AFETR). Payload-class satellites include a variety of spacecraft equipped with specific instruments for various scientific and technological missions. These include communications satellites like Starlink; space stations such as the ISS; scientific satellites like the Hubble; Earth observation satellites from companies like Planet Labs, Umbra, and HawkEye 360; GPS; miniature CubeSats for education and research; and military/defense satellites.

Loading next visibility...
Identifier
40086, 2014-040A
Orbit
LEO
Country
Flag of USUS / ORB
Related business
Manufacturer
SNC Louisville
Mission
Operational Commercial Communications
Bus & Motor
SN-100A, Unknown motor
Mass
172 kg wet, 158 kg dry
Launch date (UTC)
2014-07-14 (12 years ago)
Launch vehicle
FALCON 9
Launch site
Air Force Eastern Test Range (AFETR)
Object type
Payload
Rocket body
Debris
Shape & HBR
Box + 1 Pan + 1 Ant, 5.3 m
Radar Cross Section
2.222 m², Medium (>0.1 m² and < 1m²)

Expand to show TLE details & history
Last TLE update: 1 day ago

TLE from 1 day ago
0 ORBCOMM FM 109
1 40086U 14040A   26177.61804380  .00000418  00000-0  12460-3 0  9999
2 40086  47.0039  46.8982 0001974 271.3333  88.7326 14.58854922635728
Epoch: 2026-06-26T14:49Z
TLE epoch observation values (Epoch: 2026-06-26T14:49:58.984Z)
Latitude
-0.00006°
Longitude
-90.34159°
Altitude
697.059 km
Speed
7.509 km/s
True Right ascension
03h 07m 35s
True Declination
0° 00' 00"
Sunlit
Object was in daylight at epoch
Visualization orbit readout
Latitude
Unknown
Longitude
Unknown
Altitude
Unknown
Speed
Unknown
Apparent Right ascension
Unknown
Apparent Declination
Unknown
Sunlit
N/A
Visualization observer readout
Local Sidereal Time
01:59:15
Azimuth
Unknown
Elevation
Unknown
Doppler factor
Unknown
Orbital elements
Apogee altitude
699.505 km
Perigee altitude
696.711 km
Semi-major axis
7,076.245 km
Eccentricity
0.0002
Inclination
47.0039°
RAAN
46.8982°
Arg. of periapsis
271.3333°
True anomaly
88.75521°
Mean anomaly
88.7326°
Eccentric anomaly
88.74391°
Mean motion
3.64619 °/min
Orbital period
98.73 mins
BSTAR
0.0001246
Loading maneuver chart data...
Computing Atmospheric mass density...
Loading historical data...
Loading historical data...
Loading historical data...
Loading historical data...
Loading historical data...
Loading historical data...
Loading historical data...

Documentation

Showing up to 5 results
|